FW8576 Weather Reports


Display with metric or nautical units.
time (UTC)temp
F
wind
direction
speed
MPH
gust
MPH
rain 1hr
in
rain 24hr
in
rain mn
in
humidity
%
barometer
mb
20260507004011 81 223 5.0 5.0 0.00 0.00 0.00 56 1015.0
20260507003506 81 199 0.0 4.0 0.00 0.00 0.00 56 1015.1
20260507003001 81 173 0.0 4.0 0.00 0.00 0.00 55 1015.3
20260507002459 82 229 5.0 7.0 0.00 0.00 0.00 55 1015.6
20260507001955 82 252 5.0 6.0 0.00 0.00 0.00 53 1015.8
20260507001451 82 240 3.0 7.0 0.00 0.00 0.00 53 1015.8
20260507000949 82 234 1.0 5.0 0.00 0.00 0.00 52 1015.9
20260507000445 83 219 8.0 9.0 0.00 0.00 0.00 52 1015.9
20260506235940 83 259 8.0 11.0 0.00 0.00 0.00 51 1015.9
20260506235438 83 188 5.0 11.0 0.00 0.00 0.00 51 1015.9
20260506234933 84 241 5.0 10.0 0.00 0.00 0.00 51 1015.7
20260506234431 84 240 7.0 10.0 0.00 0.00 0.00 51 1015.7
20260506233929 84 328 0.0 9.0 0.00 0.00 0.00 51 1015.9
20260506233425 84 245 4.0 9.0 0.00 0.00 0.00 50 1016.0
20260506232921 84 207 4.0 9.0 0.00 0.00 0.00 51 1016.0
20260506232418 84 205 6.0 10.0 0.00 0.00 0.00 50 1015.9
20260506231914 84 235 3.0 7.0 0.00 0.00 0.00 50 1016.0
20260506231412 84 262 8.0 10.0 0.00 0.00 0.00 50 1015.8
20260506230909 85 209 6.0 9.0 0.00 0.00 0.00 49 1015.9
20260506230405 85 242 4.0 22.0 0.00 0.00 0.00 49 1016.1
20260506225901 86 179 7.0 8.0 0.00 0.00 0.00 48 1015.8
20260506225359 86 224 8.0 16.0 0.00 0.00 0.00 48 1015.7
20260506224856 86 191 7.0 10.0 0.00 0.00 0.00 49 1015.8
20260506224353 86 226 5.0 6.0 0.00 0.00 0.00 48 1015.7
20260506223849 86 206 10.0 11.0 0.00 0.00 0.00 48 1015.4
20260506223344 86 192 6.0 7.0 0.00 0.00 0.00 49 1015.5
20260506222842 86 237 7.0 10.0 0.00 0.00 0.00 49 1015.6
20260506222338 86 229 12.0 17.0 0.00 0.00 0.00 49 1015.5
20260506221836 87 209 3.0 5.0 0.00 0.00 0.00 49 1015.5
20260506221333 87 238 8.0 10.0 0.00 0.00 0.00 49 1015.7
20260506220831 87 227 6.0 9.0 0.00 0.00 0.00 48 1015.6
20260506220326 86 235 6.0 10.0 0.00 0.00 0.00 49 1015.9
20260506215823 87 240 4.0 12.0 0.00 0.00 0.00 48 1015.9
20260506215318 87 233 4.0 12.0 0.00 0.00 0.00 49 1015.9
20260506214814 86 251 5.0 17.0 0.00 0.00 0.00 48 1015.7
20260506214311 86 185 3.0 17.0 0.00 0.00 0.00 48 1016.0
20260506213810 87 270 4.0 11.0 0.00 0.00 0.00 48 1016.1
20260506213306 86 230 4.0 16.0 0.00 0.00 0.00 48 1015.9
20260506212804 87 232 7.0 11.0 0.00 0.00 0.00 47 1015.9
20260506212259 87 226 7.0 11.0 0.00 0.00 0.00 47 1016.0
20260506211754 88 157 4.0 15.0 0.00 0.00 0.00 46 1015.9
20260506211251 88 245 2.0 13.0 0.00 0.00 0.00 47 1015.9
20260506210748 89 195 6.0 12.0 0.00 0.00 0.00 45 1016.1
20260506210245 89 254 8.0 10.0 0.00 0.00 0.00 46 1016.1
20260506205742 87 235 6.0 15.0 0.00 0.00 0.00 46 1016.2
20260506205238 87 192 1.0 8.0 0.00 0.00 0.00 46 1016.1
20260506204735 89 248 7.0 10.0 0.00 0.00 0.00 46 1016.3
20260506204232 87 319 6.0 14.0 0.00 0.00 0.00 45 1016.3
20260506203730 89 236 5.0 13.0 0.00 0.00 0.00 45 1016.2
20260506203227 87 268 5.0 15.0 0.00 0.00 0.00 46 1016.5
20260506202725 87 213 8.0 11.0 0.00 0.00 0.00 45 1016.4
20260506202220 88 244 7.0 11.0 0.00 0.00 0.00 46 1016.2
20260506201712 88 221 8.0 8.0 0.00 0.00 0.00 46 1016.4
20260506201209 88 199 10.0 13.0 0.00 0.00 0.00 45 1016.7
20260506200706 88 203 6.0 15.0 0.00 0.00 0.00 45 1016.4
20260506200203 88 239 6.0 16.0 0.00 0.00 0.00 45 1016.7
20260506195659 88 202 9.0 10.0 0.00 0.00 0.00 46 1016.7
20260506195155 86 228 4.0 13.0 0.00 0.00 0.00 46 1016.8
20260506194653 87 276 5.0 11.0 0.00 0.00 0.00 46 1017.1
20260506194149 88 218 10.0 13.0 0.00 0.00 0.00 44 1017.1
20260506193647 88 221 7.0 8.0 0.00 0.00 0.00 46 1017.3
20260506193143 88 247 6.0 14.0 0.00 0.00 0.00 45 1017.5
20260506192640 86 202 4.0 12.0 0.00 0.00 0.00 46 1017.6
20260506192136 87 261 8.0 9.0 0.00 0.00 0.00 46 1017.5
20260506191633 86 259 7.0 14.0 0.00 0.00 0.00 46 1017.8
20260506191129 87 244 6.0 12.0 0.00 0.00 0.00 46 1017.8
20260506190627 87 221 4.0 10.0 0.00 0.00 0.00 44 1017.7
20260506190124 87 245 4.0 7.0 0.00 0.00 0.00 45 1017.8
20260506185621 87 265 2.0 7.0 0.00 0.00 0.00 47 1017.7
20260506185117 87 248 7.0 13.0 0.00 0.00 0.00 44 1017.9
20260506184614 85 255 3.0 10.0 0.00 0.00 0.00 46 1017.9
20260506184111 84 252 9.0 11.0 0.00 0.00 0.00 46 1017.9
20260506183608 85 265 9.0 14.0 0.00 0.00 0.00 47 1018.0
20260506183104 85 235 3.0 15.0 0.00 0.00 0.00 47 1018.2
20260506182602 84 287 4.0 15.0 0.00 0.00 0.00 46 1017.9
20260506182059 85 40 2.0 11.0 0.00 0.00 0.00 46 1018.1
20260506181557 85 229 11.0 13.0 0.00 0.00 0.00 45 1018.1
20260506181053 86 222 7.0 9.0 0.00 0.00 0.00 48 1018.2
20260506180550 85 214 0.0 7.0 0.00 0.00 0.00 50 1018.4
20260506180047 84 246 4.0 13.0 0.00 0.00 0.00 49 1018.3
20260506175543 84 255 3.0 11.0 0.00 0.00 0.00 49 1018.5
20260506175039 84 262 5.0 10.0 0.00 0.00 0.00 51 1018.6
20260506174538 84 154 1.0 11.0 0.00 0.00 0.00 51 1018.6
20260506174033 84 275 0.0 11.0 0.00 0.00 0.00 53 1018.6
20260506173532 83 241 5.0 12.0 0.00 0.00 0.00 51 1018.9
20260506173028 83 191 6.0 9.0 0.00 0.00 0.00 52 1019.0
20260506172526 81 237 3.0 9.0 0.00 0.00 0.00 53 1019.1
20260506172022 82 229 5.0 13.0 0.00 0.00 0.00 53 1019.0
20260506171519 81 204 8.0 14.0 0.00 0.00 0.00 52 1019.3
20260506171017 80 229 9.0 14.0 0.00 0.00 0.00 57 1019.2
20260506170514 79 197 6.0 11.0 0.00 0.00 0.00 61 1019.3
20260506170006 79 237 7.0 12.0 0.00 0.00 0.00 61 1019.6
20260506165504 78 223 5.0 9.0 0.00 0.00 0.00 62 1019.7
20260506165000 79 228 4.0 9.0 0.00 0.00 0.00 62 1020.0
20260506164456 79 322 4.0 9.0 0.00 0.00 0.00 64 1019.8
20260506163954 79 203 6.0 9.0 0.00 0.00 0.00 63 1020.2
20260506163449 78 264 3.0 11.0 0.00 0.00 0.00 63 1020.4
20260506162944 78 268 7.0 8.0 0.00 0.00 0.00 63 1020.4
20260506162442 78 200 5.0 9.0 0.00 0.00 0.00 66 1020.4
20260506161939 77 227 3.0 9.0 0.00 0.00 0.00 68 1020.5
20260506161437 77 212 6.0 8.0 0.00 0.00 0.00 68 1020.4
20260506160935 76 221 2.0 5.0 0.00 0.00 0.00 70 1020.5
20260506160432 76 262 8.0 12.0 0.00 0.00 0.00 68 1020.4
20260506155929 76 251 3.0 8.0 0.00 0.00 0.00 69 1020.4
20260506155426 76 275 4.0 11.0 0.00 0.00 0.00 70 1020.5
20260506153548 75 226 6.0 9.0 0.00 0.00 0.00 70 1020.4
20260506153045 75 242 7.0 9.0 0.00 0.00 0.00 71 1020.3
20260506152542 74 255 7.0 14.0 0.00 0.00 0.00 72 1020.3
20260506152041 74 279 3.0 12.0 0.00 0.00 0.00 71 1020.2
20260506151539 75 231 5.0 14.0 0.00 0.00 0.00 71 1020.2
20260506151035 75 256 4.0 12.0 0.00 0.00 0.00 71 1019.9
20260506150531 75 273 4.0 11.0 0.00 0.00 0.00 71 1019.8
20260506150029 76 196 5.0 13.0 0.00 0.00 0.00 71 1019.6
20260506145525 74 267 4.0 9.0 0.00 0.00 0.00 73 1019.8
20260506145023 75 245 6.0 9.0 0.00 0.00 0.00 72 1019.7
20260506144519 74 252 5.0 12.0 0.00 0.00 0.00 74 1019.3
20260506144017 74 244 5.0 8.0 0.00 0.00 0.00 73 1019.7
20260506143514 74 225 8.0 11.0 0.00 0.00 0.00 74 1019.8
20260506143013 74 233 3.0 8.0 0.00 0.00 0.00 75 1019.7
20260506142510 74 236 4.0 5.0 0.00 0.00 0.00 76 1019.9
20260506142008 73 165 4.0 4.0 0.00 0.00 0.00 77 1019.9
20260506141505 72 225 6.0 9.0 0.00 0.00 0.00 77 1019.7
20260506141004 72 180 0.0 4.0 0.00 0.00 0.00 78 1019.8
20260506140501 71 161 2.0 4.0 0.00 0.00 0.00 79 1019.8
20260506135957 71 191 2.0 4.0 0.00 0.00 0.00 79 1019.9
20260506135455 70 246 1.0 5.0 0.00 0.00 0.00 79 1020.0
20260506134951 70 209 3.0 4.0 0.00 0.00 0.00 79 1020.0
20260506134446 70 286 0.0 5.0 0.00 0.00 0.00 80 1020.1
20260506133943 70 157 0.0 3.0 0.00 0.00 0.00 81 1019.9
20260506133441 69 162 3.0 3.0 0.00 0.00 0.00 82 1019.8
20260506132937 68 228 2.0 4.0 0.00 0.00 0.00 82 1019.8
20260506132434 69 82 0.0 1.0 0.00 0.00 0.00 82 1019.7
20260506131932 68 205 0.0 3.0 0.00 0.00 0.00 82 1019.5
20260506131428 68 234 4.0 4.0 0.00 0.00 0.00 82 1019.8
20260506130925 68 168 0.0 3.0 0.00 0.00 0.00 82 1019.7
20260506130421 67 160 3.0 5.0 0.00 0.00 0.00 82 1019.7
20260506125920 67 159 2.0 3.0 0.00 0.00 0.00 82 1019.5
20260506125418 67 201 0.0 3.0 0.00 0.00 0.00 83 1019.7
20260506124916 67 195 0.0 3.0 0.00 0.00 0.00 84 1019.3
20260506124413 66 209 2.0 3.0 0.00 0.00 0.00 84 1019.7
20260506123911 66 144 0.0 3.0 0.00 0.00 0.00 85 1019.5
20260506123409 65 188 3.0 5.0 0.00 0.00 0.00 85 1019.5
20260506122906 65 185 0.0 3.0 0.00 0.00 0.00 85 1019.5
20260506122402 65 196 0.0 3.0 0.00 0.00 0.00 86 1019.4
20260506121901 64 262 1.0 3.0 0.00 0.00 0.00 86 1019.5
20260506121357 64 187 2.0 3.0 0.00 0.00 0.00 86 1019.5
20260506120854 64 183 2.0 3.0 0.00 0.00 0.00 86 1019.4
20260506120352 64 199 2.0 4.0 0.00 0.00 0.00 85 1019.5
20260506115849 64 127 0.0 2.0 0.00 0.00 0.00 86 1019.2
20260506115347 64 176 2.0 5.0 0.00 0.00 0.00 85 1019.3
20260506114845 64 202 0.0 6.0 0.00 0.00 0.00 85 1019.4
20260506114342 64 186 0.0 3.0 0.00 0.00 0.00 86 1019.3
20260506113841 64 261 0.0 3.0 0.00 0.00 0.00 86 1019.2
20260506113338 63 151 1.0 7.0 0.00 0.00 0.00 87 1019.0
20260506112835 63 210 2.0 5.0 0.00 0.00 0.00 87 1018.8
20260506112332 62 180 0.0 4.0 0.00 0.00 0.00 88 1018.7
20260506111829 62 200 4.0 5.0 0.00 0.00 0.00 88 1018.5
20260506111328 62 243 1.0 4.0 0.00 0.00 0.00 88 1018.7
20260506110825 62 225 2.0 5.0 0.00 0.00 0.00 88 1018.5
20260506110321 62 276 1.0 3.0 0.00 0.00 0.00 88 1018.5
20260506105819 62 206 2.0 9.0 0.00 0.00 0.00 88 1018.4
20260506105315 62 216 3.0 5.0 0.00 0.00 0.00 88 1018.1
20260506104812 62 219 2.0 6.0 0.00 0.00 0.00 88 1018.0
20260506104310 62 216 3.0 7.0 0.00 0.00 0.00 87 1018.2
20260506103808 62 212 2.0 6.0 0.00 0.00 0.00 88 1017.9
20260506103305 62 206 1.0 3.0 0.00 0.00 0.00 87 1018.0
20260506102802 62 278 0.0 5.0 0.00 0.00 0.00 87 1017.9
20260506102300 62 111 1.0 5.0 0.00 0.00 0.00 87 1017.8
20260506101757 62 243 0.0 5.0 0.00 0.00 0.00 87 1018.1
20260506101253 62 203 2.0 3.0 0.00 0.00 0.00 87 1017.8
20260506100751 62 175 2.0 5.0 0.00 0.00 0.00 87 1018.1
20260506100249 62 203 3.0 4.0 0.00 0.00 0.00 87 1018.0
20260506095747 62 232 2.0 4.0 0.00 0.00 0.00 87 1017.9
20260506095244 62 188 2.0 4.0 0.00 0.00 0.00 87 1018.1
20260506094740 62 180 0.0 5.0 0.00 0.00 0.00 87 1018.0
20260506094239 62 233 2.0 3.0 0.00 0.00 0.00 86 1017.7
20260506093737 62 191 3.0 4.0 0.00 0.00 0.00 86 1018.1
20260506093234 62 180 1.0 3.0 0.00 0.00 0.00 86 1018.2
20260506092732 63 203 4.0 5.0 0.00 0.00 0.00 86 1018.4
20260506092230 63 192 3.0 5.0 0.00 0.00 0.00 85 1018.3
20260506091726 63 203 2.0 5.0 0.00 0.00 0.00 85 1018.3
20260506091224 63 218 5.0 7.0 0.00 0.00 0.00 85 1018.3
20260506090722 63 12 1.0 10.0 0.00 0.00 0.00 84 1018.5
20260506090218 63 243 0.0 6.0 0.00 0.00 0.00 84 1018.7
20260506085715 63 208 2.0 7.0 0.00 0.00 0.00 84 1018.4
20260506085211 63 213 3.0 7.0 0.00 0.00 0.00 84 1018.6
20260506084708 63 255 0.0 6.0 0.00 0.00 0.00 84 1018.5
20260506084204 63 189 2.0 6.0 0.00 0.00 0.00 84 1018.5
20260506083701 63 181 7.0 7.0 0.00 0.00 0.00 84 1018.7
20260506083159 63 207 5.0 5.0 0.00 0.00 0.00 84 1018.7
20260506082657 63 248 2.0 4.0 0.00 0.00 0.00 83 1018.8
20260506082156 63 221 2.0 6.0 0.00 0.00 0.00 83 1018.5
20260506081655 63 180 3.0 4.0 0.00 0.00 0.00 84 1018.5
20260506081152 63 157 0.0 4.0 0.00 0.00 0.00 84 1018.6
20260506080650 63 227 3.0 5.0 0.00 0.00 0.00 84 1018.7
20260506080146 63 180 0.0 4.0 0.00 0.00 0.00 83 1018.5
20260506073130 63 161 4.0 7.0 0.00 0.00 0.00 83 1018.8
20260506072627 63 106 0.0 3.0 0.00 0.00 0.00 83 1018.6
20260506072125 63 191 0.0 4.0 0.00 0.00 0.00 83 1018.7
20260506071622 64 185 0.0 3.0 0.00 0.00 0.00 82 1018.9
20260506071120 64 173 0.0 4.0 0.00 0.00 0.00 82 1018.8
20260506070616 64 112 2.0 4.0 0.00 0.00 0.00 82 1018.8
20260506070114 64 147 0.0 4.0 0.00 0.00 0.00 82 1018.7
20260506062050 64 147 0.0 5.0 0.00 0.00 0.00 81 1018.4
20260506061546 64 162 4.0 4.0 0.00 0.00 0.00 81 1018.8
20260506061044 64 82 1.0 3.0 0.00 0.00 0.00 80 1018.8
20260506060543 65 194 3.0 5.0 0.00 0.00 0.00 80 1018.8
20260506051011 66 198 3.0 6.0 0.00 0.00 0.00 76 1019.5
20260506050509 66 132 0.0 7.0 0.00 0.00 0.00 76 1019.3
20260506044959 67 196 2.0 6.0 0.00 0.00 0.00 75 1019.1
20260506044458 67 175 0.0 4.0 0.00 0.00 0.00 75 1019.4
20260506043954 67 158 4.0 9.0 0.00 0.00 0.00 74 1019.4
20260506043451 67 191 0.0 10.0 0.00 0.00 0.00 74 1019.1
20260506042949 67 188 3.0 8.0 0.00 0.00 0.00 74 1019.3
20260506042448 67 190 4.0 7.0 0.00 0.00 0.00 74 1019.4
20260506041946 68 229 4.0 9.0 0.00 0.00 0.00 73 1019.3
20260506041444 67 180 3.0 9.0 0.00 0.00 0.00 73 1019.3
20260506040941 68 209 1.0 8.0 0.00 0.00 0.00 73 1019.1
20260506040438 68 209 5.0 7.0 0.00 0.00 0.00 73 1019.5
20260506035934 68 7 2.0 4.0 0.00 0.00 0.00 73 1019.4
20260506035432 68 185 3.0 6.0 0.00 0.00 0.00 73 1019.0
20260506034928 68 215 1.0 7.0 0.00 0.00 0.00 73 1019.0
20260506034425 68 90 2.0 7.0 0.00 0.00 0.00 72 1019.1
20260506033922 69 197 4.0 5.0 0.00 0.00 0.00 72 1019.2
20260506033420 69 228 2.0 7.0 0.00 0.00 0.00 72 1019.2
20260506032916 69 154 1.0 5.0 0.00 0.00 0.00 72 1019.2
20260506032414 69 212 3.0 5.0 0.00 0.00 0.00 71 1019.3
20260506031910 69 132 2.0 8.0 0.00 0.00 0.00 71 1019.3
20260506031408 69 135 2.0 7.0 0.00 0.00 0.00 71 1019.2
20260506030905 69 166 0.0 6.0 0.00 0.00 0.00 71 1019.4
20260506030403 69 156 2.0 7.0 0.00 0.00 0.00 70 1019.1
20260506025859 70 203 4.0 9.0 0.00 0.00 0.00 69 1018.9
20260506025356 70 199 0.0 7.0 0.00 0.00 0.00 69 1018.7
20260506024853 70 120 3.0 8.0 0.00 0.00 0.00 68 1019.0
20260506024350 70 171 3.0 7.0 0.00 0.00 0.00 68 1019.0
20260506023846 71 160 4.0 6.0 0.00 0.00 0.00 67 1018.8
20260506023343 71 222 3.0 5.0 0.00 0.00 0.00 67 1018.8
20260506022840 71 133 3.0 10.0 0.00 0.00 0.00 66 1018.8
20260506022337 71 130 3.0 9.0 0.00 0.00 0.00 65 1018.6
20260506021835 71 177 7.0 12.0 0.00 0.00 0.00 65 1018.6
20260506021332 71 155 3.0 9.0 0.00 0.00 0.00 64 1018.4
20260506020828 71 264 1.0 6.0 0.00 0.00 0.00 63 1018.2
20260506020327 70 182 4.0 6.0 0.00 0.00 0.00 64 1018.3
20260506015824 69 195 0.0 7.0 0.00 0.00 0.00 68 1018.2
20260506015321 69 90 0.0 0.0 0.00 0.00 0.00 68 1018.2
20260506014818 69 90 0.0 0.0 0.00 0.00 0.00 66 1018.3
20260506014315 70 99 0.0 0.0 0.00 0.00 0.00 64 1018.4
20260506013812 70 188 0.0 0.0 0.00 0.00 0.00 62 1018.0
20260506013309 70 188 0.0 0.0 0.00 0.00 0.00 60 1018.0
20260506012805 71 188 0.0 0.0 0.00 0.00 0.00 60 1018.2
20260506012307 71 188 0.0 0.0 0.00 0.00 0.00 58 1018.2
20260506011759 72 188 0.0 0.0 0.00 0.00 0.00 56 1018.5
20260506011256 72 188 0.0 0.0 0.00 0.00 0.00 56 1018.3
20260506010754 73 188 0.0 0.0 0.00 0.00 0.00 54 1018.2
20260506010251 74 188 0.0 0.0 0.00 0.00 0.00 53 1018.1
20260506005748 74 188 0.0 0.0 0.00 0.00 0.00 53 1017.9
20260506005245 74 188 0.0 0.0 0.00 0.00 0.00 52 1018.1
20260506004741 75 188 0.0 0.0 0.00 0.00 0.00 51 1018.0
20260506004239 75 195 0.0 0.0 0.00 0.00 0.00 51 1017.8